Regional Weather Roundup
Issued by NWS

Home | Current Version | Previous Version | Graphics & Text | Print | Product List | Glossary On
Versions: 1 2 3 4 5 6 7 8 9 10 11 12 13 14 15 16 17 18 19 20 21 22 23 24 25 26 27 28 29 30 31 32 33 34 35 36 37 38 39 40 41 42 43 44 45 46 47 48 49 50
000
ASUS43 KDMX 282001
RWRIA

WEATHER ROUNDUP FOR IOWA
NATIONAL WEATHER SERVICE DES MOINES IA
300 PM CDT FRI APR 28 2017

NOTE: "FAIR" INDICATES FEW OR NO CLOUDS BELOW 12,000 FEET WITH NO
SIGNIFICANT WEATHER AND/OR OBSTRUCTIONS TO VISIBILITY.

* - THESE STATIONS ARE NOT NWS STATIONS...THUS NOT UNDER NWS
QUALITY CONTROL.  THEY ALSO DO NOT REPORT WEATHER SUCH
AS PRECIPITATION OR FOG.

IAZ001>003-012>014-020>022-031>034-043>046-282100-
   NORTHWEST IOWA

CITY           SKY/WX    TMP DP  RH WIND       PRES   REMARKS
CARROLL *      CLOUDY    37  37 100 NE26      29.85F WCI  26
CHEROKEE *     CLOUDY    45  33  64 NE13G21   29.89S
DENISON *      CLOUDY    37  37 100 NE16G24   29.87R FOG     WCI  28
LE MARS *      CLOUDY    46  32  57 N13G20    29.92R
ORANGE CITY *  CLOUDY    46  34  61 NE6G18    29.91R
SHELDON *      CLOUDY    46  34  61 NE18      29.89S
SIOUX CITY     LGT RAIN  44  34  67 NE16G22   29.90S
SPENCER        CLOUDY    45  32  60 NE20      29.91S
STORM LAKE *   MIX PCPN  39  34  81 E15       29.88S WCI  31
$$

IAZ055>058-069>071-079>083-090>094-282100-
   SOUTHWEST IOWA

CITY           SKY/WX    TMP DP  RH WIND       PRES   REMARKS
ATLANTIC *     CLOUDY    39  37  93 NE16G26   29.82S WCI  30
AUDUBON *      CLOUDY    37  36  93 NE16G25   29.84F WCI  28
CLARINDA *     CLOUDY    43  39  87 NE15G26   29.82R
COUNCIL BLFS * PTSUNNY   39  39 100 NE14G21   29.84R WCI  31
CRESTON *      PTSUNNY   39  39 100 NE24      29.81F WCI  28
HARLAN  *      CLOUDY    39  39 100 NE15G21   29.87R WCI  31
LAMONI         LGT RAIN  41  39  93 NE15      29.79R
RED OAK *      CLOUDY    41  39  93 NE18      29.81R
SHENANDOAH *   CLOUDY    43  39  87 NE21      29.80R
$$

IAZ047>049-059>061-072>074-084-282100-
   CENTRAL IOWA

CITY           SKY/WX    TMP DP  RH WIND       PRES   REMARKS
AMES           LGT RAIN  40  39  97 NE13      29.87R FOG     WCI  32
ANKENY *       LGT RAIN  39  37  93 NE12      29.90R WCI  32
BOONE *        LGT RAIN  39  39 100 N16       29.88R WCI  30
CHARITON *     RAIN      41  39  93 NE14G20   29.81R
DES MOINES     RAIN      40  38  93 N8        29.89R FOG     WCI  34
GRINNELL*      DRIZZLE   40  37  91 NE17      29.85R WCI  31
KNOXVILLE *    LGT RAIN  41  39  93 NE13      29.81R
MARSHALLTOWN   CLOUDY    41  37  86 NE20      29.84F
NEWTON *       CLOUDY    39  37  93 NE16      29.84R FOG     WCI  30
PELLA *        RAIN      40  38  93 NE9G17    29.84R WCI  34
PERRY *        LGT RAIN  38  37  92 NE17      29.84F WCI  29
$$

IAZ004>006-015-016-023>025-035-036-282100-
   NORTH CENTRAL IOWA

CITY           SKY/WX    TMP DP  RH WIND       PRES   REMARKS
ALGONA *       PTSUNNY   45  34  65 NE12      29.91F
CLARION *      PTSUNNY   39  39 100 E9        29.91S WCI  33
ESTHERVILLE    PTSUNNY   44  34  67 NE14      29.92F
FORT DODGE *   CLOUDY    37  32  81 NE7       29.92R WCI  32
MASON CITY     PTSUNNY   44  32  62 NE12      29.92F
FOREST CITY *    N/A     45  28  53 NE7       29.92F
WEBSTER CITY * RAIN      39  36  87 N15       29.88R WCI  31
IOWA FALLS *   LGT RAIN  41  37  85 N12G18    29.88S
$$

IAZ007>011-017>019-026>030-037>042-050>054-066-282100-
   NORTHEAST IOWA

CITY           SKY/WX    TMP DP  RH WIND       PRES   REMARKS
CEDAR RAPIDS   LGT RAIN  41  41 100 NE12      29.84S FOG
CHARLES CITY * CLOUDY    46  30  53 N10       29.91S
CLINTON *      LGT RAIN  46  44  93 NE15      29.84F FOG
DECORAH *      CLOUDY    46  32  57 NE6       29.89F
DUBUQUE        LGT RAIN  43  39  86 NE15      29.86F
MONTICELLO *   LGT RAIN  45  39  81 NE8G17    29.86S
OELWEIN *      LGT RAIN  45  39  81 NE10      29.88F
WATERLOO       LGT RAIN  44  37  76 NE10      29.87F
$$

IAZ064-065-067-068-078-282100-
   EAST CENTRAL IOWA

CITY           SKY/WX    TMP DP  RH WIND       PRES   REMARKS
DAVENPORT      CLOUDY    45  43  93 NE16      29.82F FOG
IOWA CITY      RAIN      43  40  89 NE10      29.85S FOG
MUSCATINE *    CLOUDY    45  43  93 NE10G18   29.81F
QUAD CITIES    CLOUDY    47  43  86 E9        29.81F
$$

IAZ062-063-075>077-085>089-095>099-282100-
   SOUTHEAST IOWA

CITY           SKY/WX    TMP DP  RH WIND       PRES   REMARKS
BURLINGTON     CLOUDY    53  52  96 NE9       29.77F FOG
FAIRFIELD *    CLOUDY    43  41  93 NE13      29.81R
FORT MADISON * CLOUDY    54  54 100 NE6       29.77S FOG
KEOKUK *       CLOUDY    57  54  88 SE7       29.75R
OSKALOOSA *    LGT RAIN  40  39  95 NE14      29.82S WCI  33
CENTERVILLE *  CLOUDY    41  41 100 NE8       29.80R
OTTUMWA        LGT RAIN  42  41  96 NE13      29.81R
WASHINGTON *   LGT RAIN  43  43 100 N14       29.83R
$$

ABBREVIATIONS USED IN REMARKS
   TC - TEMPERATURES IN CELSIUS
  WCI - WIND CHILL INDEX
   HX - HEAT INDEX
  VSB - VISIBILITY
$$




USA.gov is the U.S. government's official web portal to all federal, state and local government web resources and services.